This is the latest recevied weather packets stored in our database for station/object KJ5JYX. If no packets are shown the sender has not sent any weather packets the latest 10 day(s).
| Time | Temp. | Humidity | Pressure | Rain* | Wind** | Luminosity | Snow |
|---|---|---|---|---|---|---|---|
| 1777503003 | 19.44° C | 85% | 1013.3 hPa | 0 mm | - | 86 W/m² | - |
| 1777502700 | 19.44° C | 85% | 1013.2 hPa | 0 mm | - | 84 W/m² | - |
| 1777502397 | 19.44° C | 85% | 1013.2 hPa | 0 mm | - | 168 W/m² | - |
| 1777502094 | 19.44° C | 84% | 1012.8 hPa | 0 mm | - | 173 W/m² | - |
| 1777501791 | 19.44° C | 85% | 1013.3 hPa | 0 mm | - | 104 W/m² | - |
| 1777501489 | 19.44° C | 84% | 1013.6 hPa | 0 mm | - | 71 W/m² | - |
| 1777501185 | 19.44° C | 84% | 1013.6 hPa | 0 mm | - | 95 W/m² | - |
| 1777500884 | 19.44° C | 84% | 1013.6 hPa | 0 mm | - | 104 W/m² | - |
| 1777500580 | 20° C | 84% | 1013.4 hPa | 0 mm | - | 106 W/m² | - |
| 1777500277 | 20° C | 83% | 1013.3 hPa | 0 mm | - | 89 W/m² | - |
| 1777499973 | 20° C | 83% | 1013.3 hPa | 0 mm | - | 91 W/m² | - |
| 1777499670 | 20° C | 83% | 1013.1 hPa | 0 mm | - | 111 W/m² | - |
| 1777499367 | 20° C | 83% | 1013 hPa | 0 mm | - | 107 W/m² | - |
| 1777499065 | 20° C | 83% | 1012.6 hPa | 0 mm | - | 158 W/m² | - |
| 1777498761 | 20° C | 83% | 1013 hPa | 0 mm | - | 182 W/m² | - |
| 1777498458 | 19.44° C | 85% | 1013.1 hPa | 0 mm | - | 131 W/m² | - |
| 1777498154 | 19.44° C | 85% | 1013 hPa | 0 mm | - | 111 W/m² | - |
| 1777497852 | 19.44° C | 85% | 1013.1 hPa | 0 mm | - | 103 W/m² | - |
| 1777497548 | 19.44° C | 84% | 1013.2 hPa | 0 mm | - | 102 W/m² | - |
| 1777497244 | 19.44° C | 84% | 1013.3 hPa | 0 mm | - | 100 W/m² | - |
| 1777496941 | 19.44° C | 84% | 1013.3 hPa | 0 mm | - | 85 W/m² | - |
| 1777496638 | 19.44° C | 85% | 1013.4 hPa | 0 mm | - | 165 W/m² | - |
| 1777496334 | 20° C | 83% | 1013.4 hPa | 0 mm | - | 143 W/m² | - |
| 1777496030 | 20° C | 83% | 1013.4 hPa | 0 mm | - | 129 W/m² | - |
| 1777495726 | 19.44° C | 84% | 1013.5 hPa | 0 mm | - | 173 W/m² | - |
* Rain latest hour (hover to see other rain measurements)
** Current wind speed in m/s (hover to see current wind gust speed)